| time (UTC) | temp C | wind direction | speed KPH | gust KPH | rain 1hr cm | rain 24hr cm | rain mn cm | humidity % | barometer mb |
| 20260504212525 | 25 | 221 | 8.0 | 14.5 | 0.00 | 0.00 | 0.00 | 33 | 1009.6 |
| 20260504211455 | 25 | 203 | 4.8 | 12.9 | 0.00 | 0.00 | 0.00 | 33 | 1009.5 |
| 20260504205356 | 25 | 181 | 0.0 | 9.7 | 0.00 | 0.00 | 0.00 | 32 | 1009.6 |
| 20260504203355 | 26 | 192 | 0.0 | 16.1 | 0.00 | 0.00 | 0.00 | 31 | 1009.7 |
| 20260504202355 | 26 | 144 | 3.2 | 4.8 | 0.00 | 0.00 | 0.00 | 30 | 1009.8 |
| 20260504201326 | 26 | 217 | 8.0 | 12.9 | 0.00 | 0.00 | 0.00 | 29 | 1009.9 |
| 20260504194225 | 26 | 207 | 3.2 | 4.8 | 0.00 | 0.00 | 0.00 | 29 | 1010.2 |
| 20260504193225 | 26 | 229 | 3.2 | 9.7 | 0.00 | 0.00 | 0.00 | 30 | 1010.4 |
| 20260504192225 | 26 | 204 | 3.2 | 11.3 | 0.00 | 0.00 | 0.00 | 30 | 1010.6 |
| 20260504191155 | 25 | 31 | 3.2 | 8.0 | 0.00 | 0.00 | 0.00 | 32 | 1010.8 |
| 20260504190155 | 25 | 191 | 0.0 | 4.8 | 0.00 | 0.00 | 0.00 | 31 | 1011.0 |
| 20260504185125 | 26 | 181 | 1.6 | 8.0 | 0.00 | 0.00 | 0.00 | 30 | 1011.3 |
| 20260504182055 | 25 | 233 | 0.0 | 1.6 | 0.00 | 0.00 | 0.00 | 33 | 1011.8 |
| 20260504180025 | 25 | 184 | 1.6 | 4.8 | 0.00 | 0.00 | 0.00 | 32 | 1012.1 |
| 20260504174025 | 24 | 235 | 1.6 | 8.0 | 0.00 | 0.00 | 0.00 | 34 | 1012.4 |
| 20260504171955 | 23 | 137 | 1.6 | 0.0 | 0.00 | 0.00 | 0.00 | 34 | 1012.6 |
| 20260504140425 | 16 | 219 | 0.0 | 0.0 | 0.00 | 0.00 | 0.00 | 50 | 1014.3 |
| 20260504130325 | 13 | 322 | 1.6 | 1.6 | 0.00 | 0.00 | 0.00 | 57 | 1015.0 |
| 20260504081525 | 11 | 263 | 0.0 | 0.0 | 0.00 | 0.00 | 0.00 | 69 | 1015.4 |
| 20260504045025 | 9 | 263 | 0.0 | 0.0 | 0.00 | 0.00 | 0.00 | 74 | 1015.5 |
| 20260504044025 | 8 | 263 | 0.0 | 0.0 | 0.00 | 0.00 | 0.00 | 74 | 1015.5 |
| 20260504042025 | 8 | 263 | 0.0 | 0.0 | 0.00 | 0.00 | 0.00 | 73 | 1015.4 |
| 20260504041025 | 8 | 263 | 0.0 | 0.0 | 0.00 | 0.00 | 0.00 | 72 | 1015.5 |
| 20260504034956 | 8 | 263 | 0.0 | 0.0 | 0.00 | 0.00 | 0.00 | 70 | 1015.6 |
| 20260504033925 | 9 | 263 | 0.0 | 0.0 | 0.00 | 0.00 | 0.00 | 69 | 1015.4 |
| 20260504032939 | 9 | 263 | 0.0 | 0.0 | 0.00 | 0.00 | 0.00 | 68 | 1015.4 |
| 20260504032855 | 9 | 263 | 0.0 | 0.0 | 0.00 | 0.00 | 0.00 | 68 | 1015.4 |
| 20260504031021 | 9 | 263 | 0.0 | 0.0 | 0.00 | 0.00 | 0.00 | 67 | 1015.3 |
| 20260504030825 | 9 | 263 | 0.0 | 0.0 | 0.00 | 0.00 | 0.00 | 67 | 1015.3 |
| 20260504025755 | 10 | 263 | 0.0 | 0.0 | 0.00 | 0.00 | 0.00 | 66 | 1015.3 |
| 20260504024921 | 10 | 263 | 0.0 | 0.0 | 0.00 | 0.00 | 0.00 | 65 | 1015.0 |
| 20260504024725 | 10 | 263 | 0.0 | 0.0 | 0.00 | 0.00 | 0.00 | 65 | 1015.1 |
| 20260504023655 | 10 | 263 | 0.0 | 0.0 | 0.00 | 0.00 | 0.00 | 65 | 1015.0 |
| 20260504022655 | 10 | 263 | 0.0 | 0.0 | 0.00 | 0.00 | 0.00 | 64 | 1015.0 |
| 20260504021625 | 10 | 263 | 0.0 | 0.0 | 0.00 | 0.00 | 0.00 | 64 | 1014.9 |
| 20260504020625 | 10 | 263 | 0.0 | 0.0 | 0.00 | 0.00 | 0.00 | 63 | 1015.0 |
| 20260504014555 | 11 | 263 | 0.0 | 0.0 | 0.00 | 0.00 | 0.00 | 59 | 1014.8 |
| 20260504013639 | 11 | 263 | 0.0 | 0.0 | 0.00 | 0.00 | 0.00 | 57 | 1014.7 |
| 20260504013525 | 11 | 263 | 0.0 | 0.0 | 0.00 | 0.00 | 0.00 | 57 | 1014.7 |
| 20260504012651 | 11 | 263 | 0.0 | 0.0 | 0.00 | 0.00 | 0.00 | 55 | 1014.7 |
| 20260504012455 | 11 | 263 | 0.0 | 0.0 | 0.00 | 0.00 | 0.00 | 55 | 1014.7 |
| 20260504011455 | 12 | 263 | 0.0 | 0.0 | 0.00 | 0.00 | 0.00 | 52 | 1014.7 |
| 20260504005455 | 13 | 263 | 0.0 | 0.0 | 0.00 | 0.00 | 0.00 | 48 | 1014.6 |
| 20260504004455 | 13 | 263 | 0.0 | 0.0 | 0.00 | 0.00 | 0.00 | 47 | 1014.5 |
| 20260504003455 | 13 | 263 | 0.0 | 0.0 | 0.00 | 0.00 | 0.00 | 45 | 1014.4 |
| 20260504002627 | 14 | 263 | 0.0 | 0.0 | 0.00 | 0.00 | 0.00 | 43 | 1014.3 |
| 20260504002425 | 14 | 263 | 0.0 | 0.0 | 0.00 | 0.00 | 0.00 | 43 | 1014.3 |
| 20260504001425 | 15 | 263 | 0.0 | 0.0 | 0.00 | 0.00 | 0.00 | 41 | 1014.3 |
| 20260503233325 | 16 | 263 | 0.0 | 0.0 | 0.00 | 0.00 | 0.00 | 35 | 1014.0 |
| 20260503225225 | 17 | 293 | 1.6 | 8.0 | 0.00 | 0.00 | 0.00 | 32 | 1013.9 |
| 20260503224225 | 18 | 268 | 0.0 | 0.0 | 0.00 | 0.00 | 0.00 | 32 | 1013.9 |